Location: Kershaw
(34.5481°N, 80.5823°W)
Time: 15:58:36
(UTC+00:00)

Vanguard 1 Rocket - Pass Details

Date: 06 October 2022
Orbit: 650 x 4225 km, 34.3° (Epoch: 08 December)

Event Time Altitude Azimuth Distance (km) Brightness Sun altitude
Rises 19:20:18 0° 186° (S) 7,859 12.8 39.7°
Reaches altitude 10° 19:28:24 10° 171° (S) 7,221 12.5 38.5°
Maximum altitude 19:43:55 20° 134° (SE) 6,544 11.9 36.2°
Drops below altitude 10° 19:58:23 10° 96° (E) 6,861 11.6 33.8°
Sets 20:05:22 0° 82° (E) 7,398 11.6 32.6°
